Cosmos 1378 - Orbit

View from above orbital plane
View from above orbital plane
View from above satellite
View from above satellite

Ground track
Ground track

The orbit data is extracted from the following two-line orbital elements,

1 13271U 82059A   13144.48862850  .00004137  00000-0  24306-3 0  2123
2 13271 082.4742 247.1946 0009667 055.8405 037.5835 15.11415233684804
Epoch (UTC): 24 May 2013 11:43:37
Eccentricity: 0.0009667
inclination: 82.4742°
perigee height: 525 km
apogee height: 538 km
right ascension of ascending node: 247.1946°
argument of perigee: 55.8405°
revolutions per day: 15.11415233
mean anomaly at epoch: 37.5835°
orbit number at epoch: 68480

The dashed part of the orbit path shows where the satellite is in the earth's shadow,  

Developed and maintained by Chris Peat, Heavens-Above GmbH. Please read the updated FAQ before sending e-mail. Imprint. DLR